Torna al catalogo

KUIPER-00425

AttivoComunicazioniLEO
NORAD 68934·PAYLOAD·🇺🇸 United States

Lanciato Apr 30, 2026 da Guiana Space Centre

Loading…

Prossimi Passaggi (prossime 24 ore)

TLE

AggiornatoSource: CelesTrak SupGP

Epoca: Sep 14, 2026, 23:03 UTC

1 68934C 26098R   26257.96047454  .00002342  00000+0  30667-3 0  2578
2 68934  51.9001  21.1833 0000478 107.8706 300.8325 14.79920984    19

Traccia KUIPER-00425 in tempo reale con AllMySat

Download on the App Store